Regional Weather Roundup
Issued by NWS

Home | Current Version | Previous Version | Text Only | Print | Product List | Glossary On
Versions: 1 2 3 4 5 6 7 8 9 10 11 12 13 14 15 16 17 18 19 20 21 22 23 24 25 26 27
000
ASUS46 KPQR 240810
RWROR

OREGON REGIONAL WEATHER ROUNDUP
NATIONAL WEATHER SERVICE PORTLAND OR
100 AM PDT FRI OCT 24 2014

NOTE: "FAIR" INDICATES FEW OR NO CLOUDS BELOW 12,000 FEET WITH
NO SIGNIFICANT WEATHER AND/OR OBSTRUCTIONS TO VISIBILITY.

ORZ001>013-240900-
NORTHWEST OREGON


CITY           SKY/WX    TMP DP  RH WIND       PRES   REMARKS
ASTORIA        CLOUDY    50  48  93 E3        29.98R
NEWPORT        CLOUDY    55  52  88 SE6       30.02S
PORTLAND       CLOUDY    52  50  93 E6        30.03R
VANCOUVER WA   CLOUDY    53  50  89 SE3       30.03R
SCAPPOOSE      LGT RAIN  52  49  89 CALM      30.01S
HILLSBORO      CLOUDY    51  51 100 CALM      30.02S
AURORA         CLOUDY    50  49  96 CALM      30.03R
MCMINNVILLE    CLOUDY    52  50  93 N3        30.02R
SALEM          CLOUDY    53  48  83 S5        30.01R
CORVALLIS      CLOUDY    52  48  87 E5        30.03S
EUGENE         CLOUDY    51  49  92 SW3       30.02R
$$

ORZ021-028-240900-
SOUTHWEST OREGON


CITY           SKY/WX    TMP DP  RH WIND       PRES   REMARKS
NORTH BEND     CLOUDY    54  54 100 SE6       30.01S
BROOKINGS      CLOUDY    56  55  96 E3        30.00S
ROSEBURG       CLOUDY    54  51  90 CALM      30.02S
SEXTON SUMMIT  LGT RAIN  45  45 100 SE7       30.02S FOG
MEDFORD        LGT RAIN  54  52  93 NE3       30.02R
$$

ORZ009-041-240900-
COLUMBIA GORGE


CITY           SKY/WX    TMP DP  RH WIND       PRES   REMARKS
TROUTDALE      CLOUDY    51  48  89 E5        30.02R
THE DALLES     CLOUDY    47  44  90 CALM      30.04R
$$

ORZ029>031-042>050-061>064-240900-
EASTERN OREGON


CITY           SKY/WX    TMP DP  RH WIND       PRES   REMARKS
REDMOND        CLOUDY    47  41  80 S7        30.02R
BEND           CLOUDY    48  41  76 SW9       30.04R
KLAMATH FALLS  LGT RAIN  43  41  93 E5        30.08F
LAKEVIEW       CLOUDY    45  39  81 CALM      30.11S
HERMISTON      CLOUDY    49  44  83 SE6       30.03S
PENDLETON      CLOUDY    48  43  82 CALM      30.03R
JOHN DAY       CLOUDY    51  41  69 S6        30.06R
MEACHAM        CLOUDY    43  41  93 CALM      30.05R
LA GRANDE      CLOUDY    46  36  66 CALM      30.04R
BAKER CITY     CLOUDY    47  41  80 S5        30.06R
BURNS          CLOUDY    44  42  93 CALM      30.09S
ROME             N/A     49  43  80 E3        30.08S
ONTARIO        CLOUDY    53  50  89 CALM      30.09S
$$



USA.gov is the U.S. government's official web portal to all federal, state and local government web resources and services.